Weather History for Windsor Locks, CT

Change the Weather History Date:

Saturday, November 2, 2013

  Actual Average Record
Temperature  
Mean Temperature 54 °F 47 °F  
Max Temperature 67 °F 57 °F 83 °F (1950)
Min Temperature 40 °F 37 °F 23 °F (1976)
Degree Days  
Heating Degree Days 11 18  
Month to date heating degree days 16 36  
Since 1 July heating degree days 499 565  
Cooling Degree Days 0 0  
Month to date cooling degree days 0 0  
Year to date cooling degree days 894 756  
Growing Degree Days 2 (Base 50)    
Moisture  
Dew Point 41 °F    
Average Humidity 65    
Maximum Humidity 93    
Minimum Humidity 37    
Precipitation  
Precipitation T in 0.13 in 1.78 in (1940)
Month to date precipitation 0.15 0.26  
Year to date precipitation 43.92 38.78  
Snow  
Snow 0.00 in 0.10 in T in (1992)
Month to date snowfall 0.0 0.1  
Since 1 July snowfall T 0.1  
Since 1 September snowfall T 0.1  
Snow Depth 0.00 in    
Sea Level Pressure  
Sea Level Pressure 29.67 in    
Wind  
Wind Speed 4 mph (West)    
Max Wind Speed 16 mph    
Max Gust Speed 20 mph    
Visibility 10 miles    
Events Rain    
T = Trace of Precipitation, MM = Missing Value Source: NWS Daily Summary

Daily Weather History Graph

Daily Weather History Graph

Search for Another Location

Airport:

Trip Planner

Search our weather history database for the weather conditions in past years. The results will help you decide how hot, cold, wet, or windy it might be!

Date:

Astronomy

Nov. 02, 2013 Rise Set
Actual Time 7:24 AM EDT 5:43 PM EDT
Civil Twilight 6:55 AM EDT 6:12 PM EDT
Nautical Twilight 6:22 AM EDT 6:45 PM EDT
Astronomical Twilight 5:50 AM EDT 7:17 PM EDT
Moon 6:18 AM EDT (11/2) 5:13 PM EDT (11/2)
Length of Visible Light 11h 16m
Length of Day
10h 18m
Waning Crescent, 1% of the Moon is Illuminated
Nov 2
Waning Crescent
Nov 3
New
Nov 10
First Quarter
Nov 17
Full
Nov 25
Last Quarter

Hourly Weather History & Observations

Time (EDT) Temp. Windchill Dew Point Humidity Pressure Visibility Wind Dir Wind Speed Gust Speed Precip Events Conditions
12:51 AM 54.0 °F - 42.1 °F 64% 29.69 in 10.0 mi WNW 3.5 mph - N/A   Partly Cloudy
1:51 AM 51.1 °F - 41.0 °F 68% 29.66 in 10.0 mi Calm Calm - N/A   Clear
2:51 AM 46.0 °F - 41.0 °F 83% 29.66 in 10.0 mi Calm Calm - N/A   Clear
3:51 AM 43.0 °F - 39.9 °F 89% 29.65 in 10.0 mi Calm Calm - N/A   Partly Cloudy
4:51 AM 41.0 °F - 37.9 °F 89% 29.66 in 10.0 mi Calm Calm - N/A   Scattered Clouds
5:51 AM 42.1 °F - 39.9 °F 92% 29.68 in 10.0 mi Calm Calm - N/A   Mostly Cloudy
6:51 AM 44.1 °F - 41.0 °F 89% 29.67 in 10.0 mi Calm Calm - N/A   Mostly Cloudy
7:51 AM 41.0 °F 39.0 °F 39.0 °F 93% 29.68 in 10.0 mi WNW 3.5 mph - N/A   Mostly Cloudy
8:51 AM 46.0 °F - 42.1 °F 86% 29.70 in 10.0 mi Calm Calm - N/A   Mostly Cloudy
9:51 AM 51.1 °F - 43.0 °F 74% 29.68 in 10.0 mi Calm Calm - N/A   Mostly Cloudy
10:51 AM 57.0 °F - 41.0 °F 55% 29.66 in 10.0 mi Calm Calm - N/A   Scattered Clouds
11:51 AM 60.1 °F - 39.9 °F 47% 29.65 in 10.0 mi Calm Calm - N/A   Scattered Clouds
12:51 PM 63.0 °F - 39.9 °F 43% 29.62 in 10.0 mi Calm Calm - N/A   Partly Cloudy
1:51 PM 66.0 °F - 39.0 °F 37% 29.62 in 10.0 mi SSW 9.2 mph - N/A   Scattered Clouds
2:51 PM 66.9 °F - 39.0 °F 36% 29.60 in 10.0 mi South 10.4 mph - N/A   Scattered Clouds
3:51 PM 64.9 °F - 39.0 °F 39% 29.60 in 10.0 mi South 8.1 mph - N/A   Mostly Cloudy
4:51 PM 64.0 °F - 39.9 °F 41% 29.61 in 10.0 mi West 4.6 mph - N/A   Mostly Cloudy
5:51 PM 62.1 °F - 41.0 °F 46% 29.62 in 10.0 mi West 9.2 mph - N/A   Mostly Cloudy
6:51 PM 60.1 °F - 42.1 °F 51% 29.67 in 10.0 mi West 13.8 mph - 0.00 in Rain Light Rain
7:51 PM 55.9 °F - 45.0 °F 67% 29.69 in 10.0 mi West 3.5 mph - 0.00 in   Mostly Cloudy
8:51 PM 54.0 °F - 43.0 °F 66% 29.70 in 10.0 mi NNW 4.6 mph - N/A   Scattered Clouds
9:51 PM 52.0 °F - 44.1 °F 74% 29.74 in 10.0 mi NNW 5.8 mph - N/A   Scattered Clouds
10:51 PM 52.0 °F - 42.1 °F 69% 29.74 in 10.0 mi North 4.6 mph - N/A   Mostly Cloudy
11:51 PM 48.9 °F - 41.0 °F 74% 29.75 in 10.0 mi NW 6.9 mph - N/A   Mostly Cloudy